Regional Weather Roundup
Issued by NWS

Home | Current Version | Previous Version | Text Only | Print | Product List | Glossary Off
Versions: 1 2 3 4 5 6 7 8 9 10 11 12 13 14 15 16 17 18 19 20 21 22 23 24 25 26 27 28 29 30 31 32 33 34 35 36 37 38 39 40 41 42 43 44 45 46 47 48 49 50

000
ASUS45 KTFX 220019
RWRMT
MONTANA HOURLY WEATHER ROUNDUP
NATIONAL WEATHER SERVICE GREAT FALLS MT
519 PM MST SUN DEC 21 2014

NOTE: "FAIR" INDICATES FEW OR NO CLOUDS BELOW 12000 FEET WITH NO
SIGNIFICANT WEATHER AND/OR OBSTRUCTIONS TO VISIBILITY.

* THESE STATIONS ARE NOT UNDER NWS QUALITY CONTROL. THEY DO NOT
   REPORT WEATHER SUCH AS PRECIPITATION OR FOG.

MTZ001>007-043-220100-
WEST OF THE DIVIDE
CITY           SKY/WX    TMP DP  RH WIND       PRES   REMARKS
KALISPELL      CLOUDY    39  28  65 SW8       29.73R WCI  33
MISSOULA       PTCLDY    36  30  79 NW10      29.82R WCI  29
BUTTE          CLOUDY    30  28  92 NW14      29.76R WCI  19
MULLAN PASS    MOCLDY    28  27  96 NW9       29.79R WCI  19
* ESSEX        N/A       36  31  82 W4G9       N/A
* EUREKA APT   PTCLDY    45  27  49 CALM      29.74R
* HAMILTON APT MOCLDY    37  32  82 S7        29.84R WCI  32
* LIBBY APT    PTCLDY    46  27  48 SW3       29.78R
* LINCOLN      N/A       38  25  60 SW7G18     N/A   WCI  33
* LOOKOUT PASS N/A       35  28  76 N/A        N/A
* POLSON       N/A       38  26  62 W4G12      N/A
* RONAN APT    PTCLDY    43  30  60 SW8        N/A
* SEELEY LAKE  N/A       37  28  70 N9G25      N/A   WCI  30
* THOMP F APT  MOCLDY    34  28  79 SE3G15     N/A
$$

MTZ008-052>055-220100-
SOUTHWEST MONTANA
CITY           SKY/WX    TMP DP  RH WIND       PRES   REMARKS
BOZEMAN        LGT SNOW  36  28  73 W17       29.71R WCI  26
DILLON         PTCLDY    36  27  70 W29G40    29.74R WCI  23
* W YELLOWSTON MOCLDY    31  25  78 SW4G10     N/A
* THREE FORKS  MOCLDY    39  39 100 W21G37     N/A   WCI  29
* BOULDER HILL N/A       34  15  46 S8G14      N/A   WCI  27
* MONIDA PASS  N/A       31  18  59 NW26G34    N/A   WCI  17
* RAYNOLDS PAS N/A       33  30  89 NW13G18    N/A   WCI  24
* WHITEHALL    N/A       36  34  92 SW6        N/A   WCI  31
* WISE RIVER   N/A       34  26  73 W19G28     N/A   WCI  23
$$

MTZ009>010-012-014-046-048-049-054-220100-
EAST SLOPES AND CENTRAL MONTANA
CITY           SKY/WX    TMP DP  RH WIND       PRES   REMARKS
CUT BANK       PTCLDY    36  28  73 W18G29    29.55R WCI  26
GREAT FALLS    CLOUDY    41  21  45 W16       29.57R
HELENA         PTCLDY    41  25  53 W26G38    29.65R
MALMSTROM AFB  CLOUDY    43  23  45 W16G23    29.59R
* CONRAD       PTCLDY    41  30  65 SW22G28    N/A
* DEARBORN     N/A       45  21  38 S8G17      N/A
* EAST GLACIER N/A       34  23  64 NW15G23    N/A   WCI  24
* MONARCH      N/A       36  15  42 W26G35     N/A   WCI  24
* PENDROY      N/A       37  24  59 W27G36     N/A   WCI  25
* ROGERS PASS  N/A       33  20  59 SE10G27    N/A   WCI  25
* SWEET GRASS  N/A       38  27  65 NW27G32    N/A   WCI  26
* WHITE SULPH  N/A       36  21  54 W13G24     N/A   WCI  27
$$

MTZ011-013-016-021-035-040-045-047-050-051-220100-
NORTH CENTRAL MONTANA
CITY           SKY/WX    TMP DP  RH WIND       PRES   REMARKS
HAVRE          CLOUDY    41  30  65 W20       29.47R
LEWISTOWN      CLOUDY    39  30  70 NW15G23   29.55R WCI  31
* N BAR RANCH  MOCLDY    36  30  79 NW25G35   29.49R WCI  24
* CHINOOK      CLOUDY    39  30  70 W15       29.45R WCI  31
* CHESTER      N/A       38  29  70 NW12       N/A   WCI  30
* DENTON       N/A       39  29  67 W27G35     N/A   WCI  28
* GEYSER       N/A       41  19  41 W24G32     N/A
* JUDITH GAP   N/A       39  20  46 NW14G20    N/A   WCI  31
* LOMA         N/A       45  28  51 SW15G22    N/A
$$

MTZ017>020-022>027-061-062-220100-
NORTHEAST MONTANA
CITY           SKY/WX    TMP DP  RH WIND       PRES   REMARKS
GLASGOW        CLOUDY    32  30  92 SW5       29.36R WCI  27
GLENDIVE       CLOUDY    34  32  92 CALM      29.38R
JORDAN         CLOUDY    41  34  76 W18       29.40R
SIDNEY         CLOUDY    34  32  92 S8        29.38R WCI  27
WOLF POINT     CLOUDY    34  30  85 W6        29.36R WCI  29
* BEAVER HILL  N/A       36  35  96 SW9        N/A   WCI  29
* CIRCLE       N/A       37  36  96 N/A        N/A
* LINDSAY DVD  N/A       39  36  89 W17G22     N/A   WCI  30
* PLENTYWOOD A CLOUDY    30  28  92 CALM      29.33S
* POPLAR APT   CLOUDY    34  28  79 SW6       29.36R WCI  29
* SACO         N/A       33  31  92 SW5        N/A   WCI  28
$$

MTZ028>042-056>058-220100-
SOUTHCENTRAL AND SOUTHEAST MONTANA
CITY           SKY/WX    TMP DP  RH WIND       PRES   REMARKS
BAKER          LGT RAIN  37  37 100 W14       29.38R WCI  28
BILLINGS       CLOUDY    46  19  34 W26G36    29.52R
LIVINGSTON     MOCLDY    39  25  57 W32G41    29.61R WCI  27
MILES CITY     CLOUDY    39  36  89 W10       29.41R WCI  32
* BIG TIMBER A PTCLDY    39  19  45 W21G30    29.60R WCI  29
* FORSYTH APT  CLOUDY    45  34  65 W20G26    29.45R
* LAUREL APT   MOCLDY    48  16  28 W18G28     N/A
* ROUNDUP APT  CLOUDY    45  23  42 W10        N/A
* ALZADA       N/A       37  35  92 W7         N/A   WCI  32
* HYSHAM       N/A       45  24  44 NW13G25    N/A
* LAME DEER    N/A       42  25  51 W14G32     N/A
* REED POINT   N/A       45  20  37 W30G46     N/A
* ROSCOE HILL  N/A       39  10  30 W4G16      N/A
$$

REGIONAL REPORTS...DAKOTAS
CITY           SKY/WX    TMP DP  RH WIND       PRES   REMARKS
WILLISTON      CLOUDY    36  28  73 CALM      29.35R
DICKINSON      LGT RAIN  39  36  89 SW10      29.34R WCI  32
BEACH          LGT RAIN  36  36 100 W9        29.37R WCI  29
CROSBY         PTCLDY    32  32 100 SE3       29.36S
TIOGA          CLOUDY    32  32 100 S7        29.38R WCI  25
WATFORD CITY   MOCLDY    36  28  73 CALM      29.34R
BISMARCK       PTCLDY    28  28 100 SE12      29.44R WCI  18
GRAND FORKS    CLOUDY    32  30  92 SE13      29.59F WCI  22
FARGO          CLOUDY    36  30  79 SE12      29.58F WCI  28
BUFFALO SD     CLOUDY    37  36  96 W8        29.33R WCI  31
RAPID CITY     CLOUDY    39  27  62 N8        29.41R WCI  33
$$

REGIONAL REPORTS...WYOMING/IDAHO/WASHINGTON
CITY           SKY/WX    TMP DP  RH WIND       PRES   REMARKS
GILLETTE       CLOUDY    39  30  70 NW9       29.48R WCI  33
SHERIDAN       CLOUDY    39  27  62 N10       29.51R WCI  32
CODY           CLOUDY    36  30  79 W3        29.60R
YELLOWSTONE LA PTCLDY    27  19  72 W12G20    29.70R WCI  16
SALMON         MOCLDY    43  21  42 NW13G20   29.85R
MULLAN PASS    MOCLDY    28  27  96 NW9       29.79S WCI  19
SAND POINT     CLOUDY    45  36  71 W5        29.83R
SPOKANE        CLOUDY    45  36  71 W12       29.87R
$$

REGIONAL REPORTS...ALBERTA
CITY           SKY/WX    TMP DP  RH WIND       PRES   REMARKS
CALGARY        FAIR      30  25  82 VRB2      29.52R
LETHBRIDGE     MOCLDY    39  28  65 W20G28    29.53R WCI  29
MEDICINE HAT   MOCLDY    34  28  79 NW10      29.50R WCI  26
EDMONTON       CLOUDY    23  19  85 W5        29.51R WCI  16
WATERTON GATE  N/A       34  28  79 SW20G29    N/A   WCI  23
CARDSTON       N/A       37  28  70 W16G26     N/A   WCI  28
MILK RIVER     N/A       37  28  70 W21        N/A   WCI  26
$$

REGIONAL REPORTS...SASKATCHEWAN
CITY           SKY/WX    TMP DP  RH WIND       PRES   REMARKS
SWIFT CURRENT  LGT RAIN N/A N/A N/A N/A        N/A
REGINA         PTCLDY    23  21  92 SE10      29.38R WCI  13
VAL MARIE      N/A       36  34  92 W13        N/A   WCI  27
ASSINIBOIA     N/A       30  27  89 SE5        N/A   WCI  25
CORONACH       N/A       30  27  89 SE2        N/A

$$



USA.gov is the U.S. government's official web portal to all federal, state and local government web resources and services.